Back to catalog

ATLAS 5 CENTAUR DEB

AliveHEO
NORAD 43994·DEBRIS·🇺🇸 United States

Launched Sep 17, 2014 from Cape Canaveral Space Force Station

Loading…

Next Passes (next 24 hours)

TLE

FreshSource: Space-Track

Epoch: Sep 7, 2026, 11:54 UTC

1 43994U 14055AZ  26250.49584446 -.00000044  00000-0  00000-0 0  9992
2 43994  19.4459 171.3724 4596078 118.3273 295.1704  1.80957371 52312

Track ATLAS 5 CENTAUR DEB in real time with AllMySat

Download on the App Store